Regional Weather Roundup
Issued by NWS New Orleans/Baton Rouge, LA

Home | Current Version | Previous Version | Graphics & Text | Print | Product List | Glossary On
Versions: 1 2 3 4 5 6 7 8 9 10 11 12 13 14 15 16 17 18 19 20 21 22 23 24 25 26 27 28 29 30 31 32 33 34 35 36 37 38 39 40 41 42 43 44 45 46 47 48 49 50
823
ASUS44 KLIX 020905
RWRLIX
NEW ORLEANS REGIONAL WEATHER ROUNDUP
NATIONAL WEATHER SERVICE NEW ORLEANS LA
300 AM CST MON MAR 02 2015

NOTE: "FAIR" INDICATES FEW OR NO CLOUDS BELOW 12,000 FEET WITH NO
      SIGNIFICANT WEATHER AND/OR OBSTRUCTIONS TO VISIBILITY.
      SKY/WX - SKY CONDITION AND SIGNIFICANT WEATHER.
      TMP - AIR TEMPERATURE.     DP    - DEWPOINT TEMPERATURE.
      RH  - RELATIVE HUMIDITY.   PRES  - PRESSURE.
      HI  - HEAT INDEX.          WCI   - WIND CHILL INDEX.

*  THESE STATIONS ARE NOT NWS OR FAA STATIONS AND ARE NOT UNDER
   NWS QUALITY CONTROL.

LAZ038-040-048-061>063-065>067-069-021000-
SOUTHEAST LOUISIANA

CITY           SKY/WX    TMP DP  RH WIND       PRES   REMARKS
N.O. AUDUBON     N/A     58  58 100 MISG        N/A
N.O. INTL ARPT LGT RAIN  60  57  89 W5        30.27S
N.O. LAKEFRONT LGT RAIN  59  56  89 SE13      30.25F FOG
SLIDELL        HVY RAIN  61  60  97 SE7       30.24F FOG
BATON ROUGE    CLOUDY    61  60  97 E7        30.24F
BOOTHVILLE     FOG       58  58 100 E9        30.26F VSB 1/4
BELLE CHASSE   LGT RAIN  60  57  89 S9        30.25S
BOGALUSA*        N/A     61  58  89 CALM      30.28S
GALLIANO*      HVY RAIN  53  52  98 N3        30.26S
NEW ROADS*     LGT RAIN  61  60  98 E6        30.25F
GONZALES*      CLOUDY    60  60 100 E5        30.25F
HAMMOND*       LGT RAIN  61  59  94 CALM      30.28S
HOUMA*         CLOUDY    60  59  98 NE7       30.24F
PORT FOURCHON* FOG       66  64  94 SE5       30.26F VSB 1

$$

MSZ070-080>082-021000-
SOUTHERN MISSISSIPPI

CITY           SKY/WX    TMP DP  RH WIND       PRES   REMARKS
MCCOMB         CLOUDY    60  59  96 SE7       30.25F
GULFPORT       CLOUDY    57  56  96 E12       30.26S
BILOXI         CLOUDY    58  58 100 SE12      30.25F
PASCAGOULA     CLOUDY    58  57  97 E8        30.26F

$$

COASTAL OBSERVATIONS
LAKE AND NEARSHORE STATIONS

STATION/POSITION TIME  TEMP    WIND        PRES    WAVE
                       AIR SEA DIR/SP/G            HT/PER
                 (UTC) (F)     (DEG/KT/KT) (MB)    (FT/S)
PASCAGOULA       0900   56     110/ 15/ 19 1023.9
WAVELAND YACHT   0900   56 54  130/ 10/ 14 1024.3
GRAND ISLE       0900   63 60   70/  6/  7 1024.5
SOUTHWEST PASS   0900   59 47  100/ 10/ 12 1024.3
NEW CANAL        0900   58     140/  2/  7 1024.6
SHELL BEACH      0900   58 55  100/ 13/ 15 1024.1

OFFSHORE STATIONS

STATION/POSITION TIME  TEMP    WIND        PRES    WAVE
                       AIR SEA DIR/SP/G            HT/PER
                 (UTC) (F)     (DEG/KT/KT) (MB)    (FT/S)
64 S DAUPHIN ISL 0848   68 71   90/ 16/ 17 1025.2    3/ 6

$$




USA.gov is the U.S. government's official web portal to all federal, state and local government web resources and services.